Disclaimer

Please do not use the information listed here in-flight or in-navigation, as they are not provided to us by the airports but are provided by volunteers, so they might be outdated.

Search


Regions


Airport information page

Radio informations:
TERENGGANU TWR - 123.6 MHz
TERENGGANU GND - 121.6 MHz

Airport informations:
Latitude: 05° 22' 57.50" N
Longitude: 103° 06' 12.10" E
Elevation: 21 feet - 6 meters
Operating hours: Remarks
Operating agency: Civil government, landing fees and diplomatic clearance may be required
Timezone: UTC+8
Fuel: N/A

Runway information:
04/22 - 6600 x 150 feet< - >2012 x 46 meters

Recent METARs:
WMKN 171300Z 07003KT 350V160 5000 RA FEW005 SCT022 BKN150 27/24 Q1010
WMKN 171400Z 06007KT 010V130 9999 SCT022 BKN150 27/24 Q1011
WMKN 171400Z 06007KT 010V130 9999 SCT022 BKN150 27/24 Q1011

Airport on the map: